This is the latest recevied weather packets stored in our database for station/object KE1THD. If no packets are shown the sender has not sent any weather packets the latest 10 day(s).
| Time | Temp. | Humidity | Pressure | Rain* | Wind** | Luminosity | Snow |
|---|---|---|---|---|---|---|---|
| 1777903540 | 19.44° C | 52% | 1002.4 hPa | 0 mm | - | 470 W/m² | - |
| 1777903237 | 18.89° C | 52% | 1002.7 hPa | 0 mm | - | 435 W/m² | - |
| 1777902933 | 18.89° C | 51% | 1002.6 hPa | 0 mm | - | 399 W/m² | - |
| 1777902630 | 18.33° C | 54% | 1002.6 hPa | 0 mm | - | 395 W/m² | - |
| 1777902327 | 17.78° C | 54% | 1002.6 hPa | 0 mm | - | 372 W/m² | - |
| 1777902024 | 17.78° C | 55% | 1002.8 hPa | 0 mm | - | 347 W/m² | - |
| 1777901723 | 17.78° C | 55% | 1003 hPa | 0 mm | - | 313 W/m² | - |
| 1777901420 | 17.22° C | 56% | 1003.2 hPa | 0 mm | - | 310 W/m² | - |
| 1777901117 | 16.67° C | 57% | 1003.1 hPa | 0 mm | - | 292 W/m² | - |
| 1777900815 | 16.67° C | 57% | 1003.2 hPa | 0 mm | - | 263 W/m² | - |
| 1777900512 | 16.11° C | 58% | 1003.1 hPa | 0 mm | - | 255 W/m² | - |
| 1777900209 | 16.11° C | 58% | 1003.2 hPa | 0 mm | - | 234 W/m² | - |
| 1777899905 | 15.56° C | 59% | 1003.2 hPa | 0 mm | - | 73 W/m² | - |
| 1777899602 | 15° C | 61% | 1003.1 hPa | 0 mm | - | 65 W/m² | - |
| 1777899299 | 14.44° C | 63% | 1003.5 hPa | 0 mm | - | 82 W/m² | - |
| 1777898997 | 13.89° C | 64% | 1003.2 hPa | 0 mm | - | 55 W/m² | - |
| 1777898694 | 13.33° C | 66% | 1003.5 hPa | 0 mm | - | 53 W/m² | - |
| 1777898391 | 12.78° C | 67% | 1003.3 hPa | 0 mm | - | 51 W/m² | - |
| 1777898089 | 12.22° C | 70% | 1003.2 hPa | 0 mm | - | 51 W/m² | - |
| 1777897784 | 12.22° C | 70% | 1003.3 hPa | 0 mm | - | 47 W/m² | - |
| 1777897481 | 11.67° C | 70% | 1003.3 hPa | 0 mm | - | 45 W/m² | - |
| 1777897177 | 11.67° C | 71% | 1003.6 hPa | 0 mm | - | 44 W/m² | - |
| 1777896873 | 11.11° C | 71% | 1003.8 hPa | 0 mm | - | 42 W/m² | - |
| 1777896570 | 11.11° C | 71% | 1003.5 hPa | 0 mm | - | 39 W/m² | - |
| 1777896267 | 11.11° C | 71% | 1003.4 hPa | 0 mm | - | 37 W/m² | - |
* Rain latest hour (hover to see other rain measurements)
** Current wind speed in m/s (hover to see current wind gust speed)